DTA652 FNBJ-LPPT

Flight info

Callsign DTA652
Flight time N/A
Altitude 34000
Route VNA UR526 LIKAD UY339 MESIN UG861 DLA UA604 KAN/N0495F360 UA604 MNA UM999 ARIAM/N0479F380 UM999 ALM UN726 BAMBA DCT ORTOP DCT VATZI
Aircraft B77W/H-SDE1E2E3FGHIJ2J3J4J5M1RWXY/LB1D1

Departure

Time 2026-05-01 12:13
Airport Dr. Antonio Agostinho Neto International Airport (FNBJ)

Arrival

Time N/A
Airport Lisbon Humberto Delgado Airport (LPPT)
Time Latitude Longitude Altitude Speed Heading
2026-05-01 11:36 -9.05540 13.49767 547 ft 0 kts 31°
2026-05-01 12:01 -9.05543 13.49765 545 ft 2 kts 32°
2026-05-01 12:01 -9.05559 13.49755 555 ft 3 kts 36°
2026-05-01 12:01 -9.05575 13.49743 554 ft 3 kts 41°
2026-05-01 12:01 -9.05590 13.49729 559 ft 3 kts 47°
2026-05-01 12:02 -9.05602 13.49713 553 ft 3 kts 58°
2026-05-01 12:02 -9.05611 13.49695 554 ft 3 kts 85°
2026-05-01 12:02 -9.05610 13.49682 555 ft 2 kts 136°
2026-05-01 12:02 -9.05608 13.49680 559 ft 0 kts 143°
2026-05-01 12:05 -9.05670 13.49728 546 ft 12 kts 143°
2026-05-01 12:05 -9.05751 13.49789 546 ft 15 kts 143°
2026-05-01 12:06 -9.05835 13.49854 546 ft 15 kts 143°
2026-05-01 12:06 -9.05920 13.49919 546 ft 15 kts 143°
2026-05-01 12:06 -9.06003 13.49983 545 ft 15 kts 143°
2026-05-01 12:06 -9.06049 13.50043 546 ft 8 kts 83°
2026-05-01 12:07 -9.06023 13.50089 546 ft 8 kts 53°
2026-05-01 12:07 -9.05981 13.50147 546 ft 12 kts 53°
2026-05-01 12:07 -9.05928 13.50217 546 ft 12 kts 53°
2026-05-01 12:07 -9.05874 13.50292 546 ft 16 kts 54°
2026-05-01 12:08 -9.05793 13.50402 546 ft 20 kts 53°
2026-05-01 12:08 -9.05710 13.50516 547 ft 20 kts 53°
2026-05-01 12:08 -9.05627 13.50629 548 ft 20 kts 53°
2026-05-01 12:08 -9.05543 13.50743 548 ft 20 kts 53°
2026-05-01 12:09 -9.05459 13.50856 548 ft 20 kts 53°
2026-05-01 12:09 -9.05376 13.50970 548 ft 20 kts 53°
2026-05-01 12:09 -9.05292 13.51084 548 ft 20 kts 53°
2026-05-01 12:09 -9.05208 13.51198 548 ft 20 kts 53°
2026-05-01 12:10 -9.05124 13.51312 549 ft 20 kts 53°
2026-05-01 12:10 -9.04957 13.51540 550 ft 20 kts 53°
2026-05-01 12:10 -9.04873 13.51654 551 ft 20 kts 53°
2026-05-01 12:11 -9.04846 13.51839 566 ft 13 kts 148°
2026-05-01 12:11 -9.04927 13.51884 567 ft 14 kts 151°
2026-05-01 12:11 -9.05007 13.51854 566 ft 14 kts 232°
2026-05-01 12:12 -9.05033 13.51818 566 ft 8 kts 234°
2026-05-01 12:12 -9.05198 13.51583 561 ft 77 kts 234°
2026-05-01 12:12 -9.05641 13.50947 562 ft 142 kts 235°
2026-05-01 12:12 -9.06319 13.49972 571 ft 191 kts 235°
2026-05-01 12:13 -9.07089 13.48868 1071 ft 194 kts 233°
2026-05-01 12:13 -9.07891 13.47737 1662 ft 195 kts 234°
2026-05-01 12:13 -9.08388 13.46466 2185 ft 200 kts 272°
2026-05-01 12:13 -9.07918 13.45137 2447 ft 213 kts 307°
2026-05-01 12:14 -9.06841 13.44013 2652 ft 233 kts 318°
2026-05-01 12:14 -9.05561 13.42897 2935 ft 251 kts 320°
2026-05-01 12:14 -9.04191 13.41733 3415 ft 262 kts 320°
2026-05-01 12:14 -9.02777 13.40530 4012 ft 269 kts 320°
2026-05-01 12:15 -9.01334 13.39294 4684 ft 273 kts 320°
2026-05-01 12:15 -8.99892 13.38050 5369 ft 276 kts 320°
2026-05-01 12:15 -8.98425 13.36779 6045 ft 279 kts 320°
2026-05-01 12:15 -8.96945 13.35490 6683 ft 282 kts 320°
2026-05-01 12:16 -8.95448 13.34185 7284 ft 286 kts 320°
2026-05-01 12:16 -8.93926 13.32857 7868 ft 290 kts 320°
2026-05-01 12:16 -8.92408 13.31528 8444 ft 295 kts 320°
2026-05-01 12:16 -8.90852 13.30167 9075 ft 296 kts 320°
2026-05-01 12:17 -8.89267 13.28782 9740 ft 299 kts 320°
2026-05-01 12:17 -8.87700 13.27413 10230 ft 305 kts 320°
2026-05-01 12:17 -8.86036 13.25968 10424 ft 325 kts 321°
2026-05-01 12:17 -8.84164 13.24644 10570 ft 344 kts 329°
2026-05-01 12:18 -8.81956 13.23434 10731 ft 365 kts 336°
2026-05-01 12:18 -8.79570 13.22391 11017 ft 379 kts 339°
2026-05-01 12:18 -8.77081 13.21390 11551 ft 387 kts 340°
2026-05-01 12:18 -8.74554 13.20389 12231 ft 392 kts 339°
2026-05-01 12:19 -8.72012 13.19373 13035 ft 394 kts 339°
2026-05-01 12:19 -8.69457 13.18338 13794 ft 398 kts 339°
2026-05-01 12:19 -8.66881 13.17282 14393 ft 403 kts 339°
2026-05-01 12:19 -8.64267 13.16201 14964 ft 408 kts 339°
2026-05-01 12:20 -8.61620 13.15101 15544 ft 414 kts 339°
2026-05-01 12:20 -8.58944 13.13985 16118 ft 419 kts 338°
2026-05-01 12:20 -8.56270 13.12867 16690 ft 423 kts 339°
2026-05-01 12:20 -8.53535 13.11724 17271 ft 427 kts 338°
2026-05-01 12:21 -8.50773 13.10570 17824 ft 432 kts 338°
2026-05-01 12:21 -8.47980 13.09403 18314 ft 437 kts 338°
2026-05-01 12:21 -8.45142 13.08218 18749 ft 442 kts 338°
2026-05-01 12:21 -8.42285 13.07024 19224 ft 445 kts 338°
2026-05-01 12:22 -8.39411 13.05825 19732 ft 448 kts 338°
2026-05-01 12:22 -8.37499 13.05027 20048 ft 450 kts 338°
2026-05-01 12:22 -8.33607 13.03403 20677 ft 455 kts 338°
2026-05-01 12:22 -8.30667 13.02176 21115 ft 459 kts 338°
2026-05-01 12:23 -8.27704 13.00940 21565 ft 463 kts 338°
2026-05-01 12:23 -8.24826 12.99740 21997 ft 466 kts 338°
2026-05-01 12:23 -8.21814 12.98484 22447 ft 469 kts 338°
2026-05-01 12:23 -8.18785 12.97221 22872 ft 473 kts 338°
2026-05-01 12:24 -8.15774 12.95966 23285 ft 476 kts 338°
2026-05-01 12:24 -8.12702 12.94686 23668 ft 479 kts 338°
2026-05-01 12:24 -8.09608 12.93396 24063 ft 481 kts 338°
2026-05-01 12:24 -8.06504 12.92104 24447 ft 483 kts 338°
2026-05-01 12:25 -8.03391 12.90807 24792 ft 486 kts 338°
2026-05-01 12:25 -7.98179 12.88636 25349 ft 490 kts 338°
2026-05-01 12:25 -7.95017 12.87320 25679 ft 493 kts 338°
2026-05-01 12:26 -7.91839 12.85997 26021 ft 495 kts 338°
2026-05-01 12:26 -7.85428 12.83329 26677 ft 500 kts 338°
2026-05-01 12:26 -7.82204 12.81988 26987 ft 503 kts 338°
2026-05-01 12:27 -7.78964 12.80640 27298 ft 505 kts 338°
2026-05-01 12:27 -7.72436 12.77925 27891 ft 510 kts 338°
2026-05-01 12:28 -7.65844 12.75185 28445 ft 514 kts 338°
2026-05-01 12:28 -7.62531 12.73807 28713 ft 516 kts 338°
2026-05-01 12:28 -7.55857 12.71034 29223 ft 520 kts 338°
2026-05-01 12:29 -7.52507 12.69642 29477 ft 522 kts 338°
2026-05-01 12:29 -7.49139 12.68243 29691 ft 524 kts 338°
2026-05-01 12:29 -7.42426 12.65456 30185 ft 525 kts 338°
2026-05-01 12:30 -7.35677 12.62654 30766 ft 523 kts 338°
2026-05-01 12:30 -7.32310 12.61257 31073 ft 522 kts 338°
2026-05-01 12:30 -7.28938 12.59857 31369 ft 521 kts 338°
2026-05-01 12:31 -7.25590 12.58468 31668 ft 520 kts 338°
2026-05-01 12:31 -7.22239 12.57078 31983 ft 519 kts 338°
2026-05-01 12:31 -7.18907 12.55696 32289 ft 518 kts 338°
2026-05-01 12:31 -7.15575 12.54314 32587 ft 517 kts 338°
2026-05-01 12:32 -7.12251 12.52936 32880 ft 516 kts 338°
2026-05-01 12:32 -7.05657 12.50202 33474 ft 515 kts 339°
2026-05-01 12:32 -7.02347 12.48830 33734 ft 515 kts 338°
2026-05-01 12:33 -6.99035 12.47457 33861 ft 517 kts 338°
2026-05-01 12:33 -6.95697 12.46075 33906 ft 519 kts 338°
2026-05-01 12:33 -6.89033 12.43313 33920 ft 515 kts 338°
2026-05-01 12:34 -6.82425 12.40573 33921 ft 512 kts 338°
2026-05-01 12:34 -6.75892 12.37866 33926 ft 511 kts 338°
2026-05-01 12:35 -6.69317 12.35141 33928 ft 511 kts 338°
2026-05-01 12:35 -6.62721 12.32410 33929 ft 512 kts 338°
2026-05-01 12:36 -6.56119 12.29676 33931 ft 514 kts 338°
2026-05-01 12:36 -6.49493 12.26933 33927 ft 515 kts 338°
2026-05-01 12:37 -6.42852 12.24185 33927 ft 516 kts 338°
2026-05-01 12:37 -6.36245 12.21451 33923 ft 517 kts 338°
2026-05-01 12:38 -6.29595 12.18700 33920 ft 517 kts 338°
2026-05-01 12:38 -6.22949 12.15952 33921 ft 517 kts 338°
2026-05-01 12:39 -6.16284 12.13197 33922 ft 517 kts 338°
2026-05-01 12:39 -6.09625 12.10445 33920 ft 517 kts 338°
2026-05-01 12:40 -6.02970 12.07696 33921 ft 517 kts 338°
2026-05-01 12:40 -5.96322 12.04950 33920 ft 516 kts 338°
2026-05-01 12:41 -5.89713 12.02220 33919 ft 517 kts 338°
2026-05-01 12:41 -5.83176 11.99522 33921 ft 517 kts 338°
2026-05-01 12:42 -5.76520 11.96775 33923 ft 517 kts 338°
2026-05-01 12:42 -5.69853 11.94023 33923 ft 517 kts 338°
2026-05-01 12:43 -5.63183 11.91272 33927 ft 518 kts 338°
2026-05-01 12:43 -5.56552 11.88537 33924 ft 518 kts 338°
2026-05-01 12:44 -5.49875 11.85784 33924 ft 519 kts 338°
2026-05-01 12:45 -5.36514 11.80277 33927 ft 519 kts 338°
2026-05-01 12:45 -5.29827 11.77521 33926 ft 519 kts 338°
2026-05-01 12:46 -5.23141 11.74766 33923 ft 519 kts 338°
2026-05-01 12:46 -5.16441 11.72033 33919 ft 520 kts 341°
2026-05-01 12:47 -5.09469 11.70194 33929 ft 518 kts 352°
2026-05-01 12:47 -5.02359 11.69508 33941 ft 516 kts 358°
2026-05-01 12:48 -4.95188 11.69083 33928 ft 517 kts 358°
2026-05-01 12:48 -4.87994 11.68624 33936 ft 517 kts 358°
2026-05-01 12:49 -4.80804 11.68131 33936 ft 518 kts 358°
2026-05-01 12:49 -4.73602 11.67628 33940 ft 518 kts 358°
2026-05-01 12:50 -4.66443 11.67131 33931 ft 518 kts 358°
2026-05-01 12:50 -4.59244 11.66633 33930 ft 518 kts 358°
2026-05-01 12:51 -4.52036 11.66136 33928 ft 518 kts 358°
2026-05-01 12:52 -4.41229 11.65389 33920 ft 518 kts 358°
2026-05-01 12:52 -4.30477 11.64647 33920 ft 518 kts 358°
2026-05-01 12:53 -4.19667 11.63911 33922 ft 518 kts 358°
2026-05-01 12:54 -4.12464 11.63421 33915 ft 518 kts 358°
2026-05-01 12:54 -4.01666 11.62685 33913 ft 518 kts 358°
2026-05-01 12:55 -3.90924 11.61953 33918 ft 518 kts 358°
2026-05-01 12:56 -3.83721 11.61462 33913 ft 518 kts 358°
2026-05-01 12:56 -3.76522 11.60971 33905 ft 518 kts 358°
2026-05-01 12:57 -3.69329 11.60482 33921 ft 518 kts 358°
2026-05-01 12:57 -3.58688 11.58733 33915 ft 520 kts 347°
2026-05-01 12:58 -3.51663 11.56951 33908 ft 521 kts 347°
2026-05-01 12:59 -3.41091 11.54323 33910 ft 522 kts 347°
2026-05-01 12:59 -3.30545 11.51760 33900 ft 512 kts 347°
2026-05-01 13:00 -3.20203 11.49246 33908 ft 510 kts 347°
2026-05-01 13:01 -3.09882 11.46736 33901 ft 511 kts 347°
2026-05-01 13:02 -2.99490 11.44207 33902 ft 513 kts 347°
2026-05-01 13:07 -2.22909 11.25598 33893 ft 516 kts 348°
2026-05-01 13:08 -2.15918 11.23901 33884 ft 517 kts 348°
2026-05-01 13:08 -2.08926 11.22204 33880 ft 517 kts 348°
2026-05-01 13:09 -2.01932 11.20507 33885 ft 517 kts 348°
2026-05-01 13:09 -1.94984 11.18821 33886 ft 518 kts 348°
2026-05-01 13:10 -1.87984 11.17122 33889 ft 518 kts 348°
2026-05-01 13:10 -1.80978 11.15422 33888 ft 518 kts 347°
2026-05-01 13:11 -1.73972 11.13722 33896 ft 518 kts 348°
2026-05-01 13:11 -1.66952 11.12018 33894 ft 518 kts 347°
2026-05-01 13:12 -1.59945 11.10314 33904 ft 518 kts 347°
2026-05-01 13:12 -1.52933 11.08608 33903 ft 518 kts 347°
2026-05-01 13:13 -1.47108 11.07191 33909 ft 518 kts 347°
2026-05-01 13:13 -1.40091 11.05485 33904 ft 518 kts 347°
2026-05-01 13:14 -1.33079 11.03779 33906 ft 518 kts 347°
2026-05-01 13:14 -1.26069 11.02074 33905 ft 519 kts 347°
2026-05-01 13:15 -1.19057 11.00369 33899 ft 518 kts 347°
2026-05-01 13:15 -1.12203 10.98703 33908 ft 518 kts 348°
2026-05-01 13:16 -1.05196 10.96999 33901 ft 518 kts 348°
2026-05-01 13:16 -0.98200 10.95298 33904 ft 518 kts 348°
2026-05-01 13:17 -0.84200 10.91894 33903 ft 517 kts 348°
2026-05-01 13:18 -0.73707 10.89343 33911 ft 517 kts 348°
2026-05-01 13:18 -0.66770 10.87659 33914 ft 515 kts 348°
2026-05-01 13:19 -0.59805 10.85974 33896 ft 514 kts 348°
2026-05-01 13:20 -0.49392 10.83452 33905 ft 513 kts 348°
2026-05-01 13:20 -0.42453 10.81770 33903 ft 513 kts 348°
2026-05-01 13:21 -0.32046 10.79249 33905 ft 513 kts 348°
2026-05-01 13:21 -0.25101 10.77566 33901 ft 513 kts 348°
2026-05-01 13:22 -0.18192 10.75891 33902 ft 514 kts 348°
2026-05-01 13:22 -0.11229 10.74204 33898 ft 514 kts 348°
2026-05-01 13:23 -0.04267 10.72517 33896 ft 514 kts 348°
2026-05-01 13:23 0.02687 10.70827 33904 ft 514 kts 348°
2026-05-01 13:24 0.09600 10.69143 33895 ft 513 kts 348°
2026-05-01 13:25 0.20010 10.66607 33902 ft 512 kts 348°
2026-05-01 13:25 0.26939 10.64920 33906 ft 512 kts 348°
2026-05-01 13:26 0.33854 10.63236 33905 ft 511 kts 348°
2026-05-01 13:26 0.40777 10.61549 33914 ft 511 kts 348°
2026-05-01 13:27 0.47692 10.59865 33909 ft 511 kts 348°
2026-05-01 13:27 0.58021 10.57350 33915 ft 511 kts 348°
2026-05-01 13:28 0.68399 10.54823 33923 ft 512 kts 348°
2026-05-01 13:29 0.82295 10.51437 33919 ft 515 kts 348°
2026-05-01 13:31 1.03218 10.46356 33917 ft 516 kts 348°
2026-05-01 13:32 1.20576 10.42146 33920 ft 512 kts 348°
2026-05-01 13:33 1.37753 10.37978 33914 ft 505 kts 348°
2026-05-01 13:34 1.51407 10.34666 33922 ft 505 kts 348°
2026-05-01 13:35 1.61632 10.32184 33924 ft 507 kts 348°
2026-05-01 13:36 1.71939 10.29683 33917 ft 509 kts 348°
2026-05-01 13:36 1.82273 10.27172 33911 ft 509 kts 348°
2026-05-01 13:37 1.89160 10.25500 33911 ft 509 kts 348°
2026-05-01 13:37 1.96054 10.23825 33909 ft 510 kts 348°
2026-05-01 13:38 2.06352 10.21321 33910 ft 510 kts 348°
2026-05-01 13:39 2.13255 10.19642 33910 ft 509 kts 348°
2026-05-01 13:39 2.20139 10.17968 33911 ft 508 kts 348°
2026-05-01 13:40 2.27011 10.16296 33898 ft 508 kts 348°
2026-05-01 13:40 2.33877 10.14626 33915 ft 507 kts 348°
2026-05-01 13:41 2.40697 10.12967 33907 ft 507 kts 348°
2026-05-01 13:41 2.47562 10.11297 33906 ft 508 kts 348°
2026-05-01 13:42 2.54436 10.09625 33899 ft 508 kts 348°
2026-05-01 13:42 2.61313 10.07951 33904 ft 508 kts 348°
2026-05-01 13:43 2.68193 10.06277 33901 ft 509 kts 348°
2026-05-01 13:43 2.75078 10.04601 33903 ft 509 kts 348°
2026-05-01 13:44 2.81927 10.02934 33905 ft 509 kts 348°
2026-05-01 13:44 2.88817 10.01256 33897 ft 510 kts 348°
2026-05-01 13:45 2.95582 9.99609 33891 ft 510 kts 348°
2026-05-01 13:45 3.02470 9.97932 33888 ft 509 kts 348°
2026-05-01 13:46 3.09355 9.96255 33888 ft 509 kts 348°
2026-05-01 13:46 3.16247 9.94576 33886 ft 509 kts 348°
2026-05-01 13:47 3.23129 9.92900 33892 ft 509 kts 348°
2026-05-01 13:47 3.30005 9.91224 33884 ft 509 kts 348°
2026-05-01 13:48 3.36838 9.89559 33882 ft 509 kts 348°
2026-05-01 13:48 3.43724 9.87881 33879 ft 509 kts 348°
2026-05-01 13:49 3.50616 9.86201 33875 ft 509 kts 348°
2026-05-01 13:49 3.57493 9.84524 33875 ft 509 kts 348°
2026-05-01 13:50 3.64338 9.82855 33881 ft 509 kts 348°
2026-05-01 13:50 3.71216 9.81178 33873 ft 509 kts 348°
2026-05-01 13:51 3.78089 9.79501 33860 ft 508 kts 348°
2026-05-01 13:51 3.84955 9.77826 33863 ft 507 kts 348°
2026-05-01 13:52 3.91819 9.76151 33858 ft 507 kts 348°
2026-05-01 13:52 3.98632 9.74484 33858 ft 506 kts 347°
2026-05-01 13:53 4.05325 9.72304 33862 ft 507 kts 342°
2026-05-01 13:53 4.15309 9.68711 33860 ft 508 kts 341°
2026-05-01 13:54 4.21966 9.66354 33864 ft 507 kts 341°
2026-05-01 13:54 4.28639 9.64008 33863 ft 507 kts 341°
2026-05-01 13:55 4.35261 9.61677 33863 ft 507 kts 341°
2026-05-01 13:55 4.41922 9.59330 33862 ft 507 kts 341°
2026-05-01 13:56 4.48586 9.57002 33857 ft 507 kts 343°
2026-05-01 13:56 4.55429 9.55325 33877 ft 506 kts 349°
2026-05-01 13:57 4.61160 9.54132 33879 ft 506 kts 349°
2026-05-01 13:57 4.69200 9.52440 33890 ft 508 kts 349°
2026-05-01 13:58 4.76122 9.50947 33888 ft 509 kts 348°
2026-05-01 13:58 4.81880 9.49694 33901 ft 509 kts 348°
2026-05-01 13:59 4.88805 9.48187 33897 ft 509 kts 349°
2026-05-01 13:59 4.95732 9.46682 33901 ft 510 kts 349°
2026-05-01 14:00 5.02661 9.45177 33915 ft 510 kts 349°
2026-05-01 14:00 5.09598 9.43669 33908 ft 509 kts 349°
2026-05-01 14:01 5.16529 9.42163 33896 ft 509 kts 349°
2026-05-01 14:01 5.23401 9.40670 33896 ft 508 kts 349°
2026-05-01 14:02 5.30315 9.39167 33886 ft 508 kts 349°
2026-05-01 14:02 5.37224 9.37664 33875 ft 508 kts 349°
2026-05-01 14:03 5.44134 9.36161 33858 ft 507 kts 349°
2026-05-01 14:03 5.51042 9.34659 33864 ft 507 kts 349°
2026-05-01 14:04 5.57893 9.33167 33850 ft 507 kts 349°
2026-05-01 14:04 5.64796 9.31664 33854 ft 507 kts 348°
2026-05-01 14:05 5.71717 9.30224 33849 ft 507 kts 352°
2026-05-01 14:05 5.78712 9.29386 33856 ft 506 kts 355°
2026-05-01 14:06 5.85717 9.28628 33855 ft 506 kts 354°
2026-05-01 14:06 5.92676 9.27838 33854 ft 507 kts 354°
2026-05-01 14:07 5.99690 9.27020 33844 ft 507 kts 354°
2026-05-01 14:08 6.10196 9.25793 33856 ft 506 kts 354°
2026-05-01 14:08 6.17158 9.24982 33861 ft 506 kts 354°
2026-05-01 14:09 6.24185 9.24398 33861 ft 506 kts 358°
2026-05-01 14:09 6.31211 9.24008 33859 ft 506 kts 358°
2026-05-01 14:10 6.38246 9.23592 33845 ft 506 kts 357°
2026-05-01 14:10 6.45281 9.23134 33848 ft 506 kts 357°
2026-05-01 14:11 6.52328 9.22662 33844 ft 506 kts 357°
2026-05-01 14:11 6.62875 9.21958 33829 ft 506 kts 357°
2026-05-01 14:12 6.69867 9.21494 33827 ft 506 kts 357°
2026-05-01 14:12 6.76896 9.21028 33822 ft 506 kts 357°
2026-05-01 14:13 6.82747 9.20639 33822 ft 507 kts 357°
2026-05-01 14:13 6.90983 9.20092 33816 ft 508 kts 357°
2026-05-01 14:14 6.98059 9.19621 33821 ft 508 kts 357°
2026-05-01 14:14 7.05074 9.19155 33822 ft 509 kts 357°
2026-05-01 14:15 7.12144 9.18532 33819 ft 509 kts 353°
2026-05-01 14:15 7.19169 9.17576 33813 ft 510 kts 353°
2026-05-01 14:16 7.26203 9.16583 33815 ft 510 kts 353°
2026-05-01 14:16 7.33240 9.15616 33810 ft 510 kts 353°
2026-05-01 14:17 7.40269 9.14668 33810 ft 509 kts 353°
2026-05-01 14:17 7.47253 9.13728 33812 ft 509 kts 353°
2026-05-01 14:18 7.54277 9.12781 33806 ft 509 kts 353°
2026-05-01 14:18 7.60125 9.11991 33812 ft 510 kts 353°
2026-05-01 14:19 7.68348 9.10880 33807 ft 510 kts 353°
2026-05-01 14:19 7.75403 9.09927 33804 ft 511 kts 353°
2026-05-01 14:20 7.85941 9.08502 33800 ft 511 kts 353°
2026-05-01 14:21 7.92980 9.07550 33807 ft 510 kts 353°
2026-05-01 14:21 8.00011 9.06599 33805 ft 510 kts 353°
2026-05-01 14:22 8.10548 9.05174 33800 ft 509 kts 353°
2026-05-01 14:22 8.17534 9.04310 33803 ft 508 kts 354°
2026-05-01 14:23 8.24564 9.03462 33796 ft 508 kts 354°
2026-05-01 14:23 8.31586 9.02595 33798 ft 508 kts 354°
2026-05-01 14:24 8.38600 9.01722 33798 ft 508 kts 354°
2026-05-01 14:24 8.45613 9.00830 33797 ft 508 kts 353°
2026-05-01 14:25 8.52501 8.99871 33796 ft 508 kts 353°
2026-05-01 14:25 8.59502 8.98880 33794 ft 508 kts 353°
2026-05-01 14:26 8.69961 8.97420 33803 ft 508 kts 353°
2026-05-01 14:27 8.76971 8.96447 33799 ft 507 kts 353°
2026-05-01 14:27 8.83979 8.95474 33817 ft 507 kts 353°
2026-05-01 14:28 8.94471 8.94016 33819 ft 507 kts 353°
2026-05-01 14:28 9.01406 8.93052 33832 ft 507 kts 352°
2026-05-01 14:29 9.08416 8.92076 33842 ft 509 kts 352°
2026-05-01 14:30 9.22511 8.90114 33850 ft 511 kts 353°
2026-05-01 14:31 9.33030 8.88649 33857 ft 510 kts 352°
2026-05-01 14:31 9.40063 8.87668 33864 ft 508 kts 353°
2026-05-01 14:32 9.47051 8.86694 33864 ft 505 kts 353°
2026-05-01 14:32 9.54016 8.85722 33865 ft 504 kts 353°
2026-05-01 14:33 9.60955 8.84753 33859 ft 504 kts 353°
2026-05-01 14:33 9.67866 8.83829 33859 ft 504 kts 354°
2026-05-01 14:34 9.74848 8.83047 33857 ft 505 kts 355°
2026-05-01 14:34 9.81843 8.82287 33855 ft 505 kts 354°
2026-05-01 14:35 9.88842 8.81505 33840 ft 505 kts 354°
2026-05-01 14:35 9.95831 8.80710 33838 ft 505 kts 354°
2026-05-01 14:36 10.02804 8.79915 33833 ft 504 kts 354°
2026-05-01 14:36 10.09736 8.79125 33832 ft 504 kts 355°
2026-05-01 14:37 10.16696 8.78332 33821 ft 502 kts 355°
2026-05-01 14:37 10.23635 8.77541 33820 ft 501 kts 355°
2026-05-01 14:38 10.30574 8.76751 33821 ft 501 kts 355°
2026-05-01 14:38 10.37503 8.75961 33813 ft 500 kts 354°
2026-05-01 14:39 10.44426 8.75171 33816 ft 500 kts 354°
2026-05-01 14:39 10.51348 8.74381 33811 ft 500 kts 354°
2026-05-01 14:40 10.58231 8.73595 33808 ft 500 kts 355°
2026-05-01 14:40 10.65159 8.72804 33804 ft 500 kts 354°
2026-05-01 14:41 10.72074 8.72013 33803 ft 500 kts 354°
2026-05-01 14:41 10.78993 8.71222 33796 ft 500 kts 354°
2026-05-01 14:42 10.85916 8.70430 33791 ft 500 kts 354°
2026-05-01 14:42 10.92786 8.69463 33796 ft 500 kts 352°
2026-05-01 14:43 10.99649 8.68223 33793 ft 501 kts 351°
2026-05-01 14:43 11.06507 8.66962 33791 ft 501 kts 351°
2026-05-01 14:44 11.13373 8.65724 33786 ft 501 kts 351°
2026-05-01 14:44 11.23683 8.63888 33786 ft 500 kts 351°
2026-05-01 14:45 11.33926 8.62063 33782 ft 500 kts 351°
2026-05-01 14:46 11.40771 8.60842 33785 ft 499 kts 351°
2026-05-01 14:46 11.51033 8.59009 33780 ft 499 kts 351°
2026-05-01 14:47 11.56719 8.57993 33784 ft 498 kts 351°
2026-05-01 14:48 11.66945 8.56165 33773 ft 496 kts 351°
2026-05-01 14:48 11.77128 8.54344 33773 ft 494 kts 351°
2026-05-01 14:49 11.90637 8.51924 33779 ft 494 kts 351°
2026-05-01 14:50 12.04193 8.49524 33772 ft 494 kts 353°
2026-05-01 14:51 12.14462 8.48494 33784 ft 494 kts 355°
2026-05-01 14:52 12.24680 8.47541 33784 ft 494 kts 355°
2026-05-01 14:53 12.34945 8.46537 33788 ft 492 kts 355°
2026-05-01 14:53 12.41760 8.45867 33781 ft 491 kts 355°
2026-05-01 14:54 12.48562 8.45200 33785 ft 491 kts 355°
2026-05-01 14:54 12.55362 8.44533 33790 ft 490 kts 355°
2026-05-01 14:55 12.62121 8.43870 33789 ft 491 kts 355°
2026-05-01 14:55 12.68925 8.43202 33789 ft 491 kts 355°
2026-05-01 14:56 12.75745 8.42532 33782 ft 492 kts 355°
2026-05-01 14:56 12.82554 8.41860 33787 ft 492 kts 355°
2026-05-01 14:57 12.89373 8.41182 33790 ft 491 kts 355°
2026-05-01 14:57 12.99578 8.40168 33788 ft 491 kts 354°
2026-05-01 14:58 13.06380 8.39491 33790 ft 491 kts 354°
2026-05-01 14:58 13.13199 8.38828 33787 ft 493 kts 355°
2026-05-01 14:59 13.19985 8.38196 33783 ft 493 kts 355°
2026-05-01 14:59 13.26823 8.37559 33784 ft 493 kts 355°
2026-05-01 15:00 13.37089 8.36595 33781 ft 493 kts 354°
2026-05-01 15:01 13.43931 8.35950 33787 ft 494 kts 354°
2026-05-01 15:01 13.50789 8.35304 33782 ft 495 kts 354°
2026-05-01 15:02 13.57612 8.34660 33780 ft 495 kts 354°
2026-05-01 15:02 13.64500 8.34011 33773 ft 496 kts 354°
2026-05-01 15:03 13.71382 8.33361 33776 ft 496 kts 354°
2026-05-01 15:03 13.78228 8.32715 33776 ft 497 kts 354°
2026-05-01 15:04 13.85137 8.32066 33775 ft 498 kts 354°
2026-05-01 15:04 13.92055 8.31416 33775 ft 499 kts 354°
2026-05-01 15:05 13.98974 8.30765 33776 ft 499 kts 354°
2026-05-01 15:05 14.05838 8.30118 33775 ft 499 kts 354°
2026-05-01 15:06 14.12757 8.29467 33781 ft 499 kts 354°
2026-05-01 15:06 14.19694 8.28812 33781 ft 500 kts 354°
2026-05-01 15:07 14.26633 8.28157 33785 ft 500 kts 353°
2026-05-01 15:07 14.33523 8.27506 33783 ft 500 kts 354°
2026-05-01 15:08 14.40499 8.26848 33783 ft 500 kts 354°
2026-05-01 15:08 14.47392 8.26196 33787 ft 500 kts 354°
2026-05-01 15:09 14.54327 8.25540 33791 ft 500 kts 354°
2026-05-01 15:09 14.61257 8.24884 33789 ft 500 kts 354°
2026-05-01 15:10 14.68184 8.24228 33787 ft 500 kts 354°
2026-05-01 15:10 14.78574 8.23243 33794 ft 500 kts 354°
2026-05-01 15:11 14.88985 8.22255 33794 ft 501 kts 353°
2026-05-01 15:12 14.95945 8.21594 33795 ft 503 kts 354°
2026-05-01 15:12 15.06372 8.20603 33799 ft 504 kts 354°
2026-05-01 15:14 15.23842 8.18945 33805 ft 505 kts 353°
2026-05-01 15:14 15.34355 8.17945 33803 ft 506 kts 354°
2026-05-01 15:15 15.48334 8.16614 33810 ft 506 kts 353°
2026-05-01 15:16 15.62353 8.15279 33808 ft 506 kts 353°
2026-05-01 15:18 15.79860 8.13608 33822 ft 505 kts 353°
2026-05-01 15:19 15.93862 8.12269 33813 ft 504 kts 353°
2026-05-01 15:19 16.04310 8.11270 33814 ft 502 kts 353°
2026-05-01 15:20 16.14692 8.10275 33816 ft 501 kts 353°
2026-05-01 15:21 16.21637 8.09609 33820 ft 501 kts 352°
2026-05-01 15:21 16.28577 8.08942 33818 ft 500 kts 352°
2026-05-01 15:22 16.38959 8.07945 33813 ft 499 kts 352°
2026-05-01 15:22 16.45869 8.07280 33807 ft 498 kts 352°
2026-05-01 15:23 16.52773 8.06616 33811 ft 498 kts 352°
2026-05-01 15:23 16.59632 8.05956 33819 ft 498 kts 352°
2026-05-01 15:24 16.66541 8.05290 33814 ft 498 kts 352°
2026-05-01 15:24 16.73451 8.04623 33813 ft 497 kts 352°
2026-05-01 15:25 16.80341 8.03958 33809 ft 497 kts 352°
2026-05-01 15:25 16.87237 8.03292 33810 ft 497 kts 352°
2026-05-01 15:26 16.94080 8.02582 33876 ft 496 kts 348°
2026-05-01 15:26 17.00727 8.00886 33889 ft 491 kts 338°
2026-05-01 15:27 17.06912 7.98224 33888 ft 488 kts 333°
2026-05-01 15:28 17.16287 7.93963 33854 ft 489 kts 333°
2026-05-01 15:28 17.22551 7.91152 33826 ft 490 kts 334°
2026-05-01 15:29 17.31931 7.86971 33799 ft 490 kts 333°
2026-05-01 15:30 17.43462 7.81827 33803 ft 490 kts 333°
2026-05-01 15:31 17.63282 7.72963 33803 ft 488 kts 333°
2026-05-01 15:32 17.75723 7.67388 33792 ft 487 kts 333°
2026-05-01 15:34 17.94391 7.59006 33800 ft 486 kts 333°